Location: Paterna
(43.5667°N, 11.6500°E)
Time: 06:19:30
(UTC+00:00)

Daily predictions for brighter satellites

Satellite Brightness Start Highest point End
(mag) Time Altitude Azimuth Time Altitude Azimuth Time Altitude Azimuth
Cosmos 2218 Rocket 4.0 18:46:38 10° S 18:52:47 74° E 18:58:56 10° NNE
Cosmos 1933 4.4 18:51:54 10° NNW 18:55:52 49° W 18:59:49 10° SSW
H-2A R/B 2.9 18:51:20 10° S 18:56:24 52° W 19:01:21 10° NNW
Cosmos 1782 2.8 18:54:04 10° N 18:58:05 72° E 19:02:06 10° SSE
Cosmos 1805 Rocket 4.5 18:55:27 10° SSE 18:59:16 29° E 19:03:08 10° NNE
Cosmos 1980 Rocket 4.0 18:56:36 10° N 19:00:17 17° NE 19:03:56 10° E
MOS 1 4.3 18:54:47 10° SSE 19:00:25 82° ENE 19:06:06 10° NNW
ERBS 3.7 18:57:42 10° WSW 19:00:54 42° NW 19:04:05 10° NE
DMSP B5D2-2 4.1 19:01:18 10° NNE 19:06:32 67° ESE 19:11:44 10° S
SL-4 R/B 2.8 19:05:17 10° SSW 19:08:49 29° SE 19:12:07 10° ENE
ATLAS 5 CENTAUR R/B 2.6 19:03:29 10° NNW 19:09:09 63° NE 19:15:44 10° SE
SL-08 RB Rocket 4.3 19:08:02 10° S 19:12:35 62° W 19:17:13 10° NNW
MetOp-A 4.2 19:08:58 10° SSE 19:14:19 86° ENE 19:19:43 10° NNW
Cosmos 1833 Rocket 3.2 19:10:31 10° S 19:15:37 38° ESE 19:20:46 10° NE
Cosmos 1697 Rocket 3.5 19:11:30 10° N 19:16:39 35° NE 19:21:20 12° ESE
Cosmos 2228 Rocket 3.0 19:14:00 10° N 19:18:27 77° E 19:22:50 10° SSE
SPOT 3 Rocket 3.6 19:15:22 10° SSE 19:20:32 68° ENE 19:25:43 10° N
Cosmos 1633 Rocket 4.5 19:18:04 12° SE 19:20:59 21° E 19:24:15 10° NE
Cosmos 1515 Rocket 4.5 19:16:43 10° NNW 19:21:04 52° W 19:25:23 10° S
Cosmos 389 Rocket 2.8 19:18:06 10° N 19:21:24 43° ENE 19:24:21 12° SSE
Cosmos 2251 Rocket 3.9 19:17:21 10° SSW 19:22:35 70° WNW 19:27:53 10° NNE
Cosmos 1812 3.2 19:19:39 10° N 19:23:20 42° ENE 19:26:33 13° SSE
Cosmos 1727 Rocket 4.1 19:17:11 10° N 19:23:36 84° E 19:29:57 10° S
Cosmos 1656 3.6 19:22:54 10° NNW 19:28:24 75° ENE 19:33:31 12° SSE
IRIDIUM 104 4.3 19:25:31 10° S 19:30:41 69° E 19:35:53 10° N
Resurs 01 Rocket 1.7 19:27:31 11° SSE 19:31:41 59° ENE 19:36:03 10° N
Cosmos 1707 Rocket 4.2 19:28:44 10° N 19:32:48 37° ENE 19:35:43 17° SE
Cosmos 220 Rocket 4.2 19:28:47 10° NNW 19:32:56 54° ENE 19:36:04 17° SE
Cosmos 972 Rocket 4.0 19:29:49 10° NNW 19:34:49 75° WSW 19:39:41 10° S
FALCON 9 DEB 3.9 19:33:51 10° SSW 19:36:59 31° SE 19:40:08 10° ENE
Cosmos 1441 Rocket 3.1 19:33:34 10° S 19:37:21 66° E 19:41:06 10° NNE
IRIDIUM 114 4.3 19:34:37 10° S 19:39:49 83° E 19:45:04 10° N
Cosmos 614 Rocket 3.9 19:35:55 10° SSW 19:41:02 75° ESE 19:46:15 10° NNE
NOSS 3-2 (A) 4.3 19:37:34 10° SSE 19:41:58 24° ESE 19:46:44 10° ENE
IGS 5A 4.3 19:41:07 19° ESE 19:43:24 34° ENE 19:47:09 10° N
USA 267 3.2 19:41:52 10° NE 19:48:27 85° SE 19:55:01 10° SW
IRIDIUM 103 4.4 19:43:44 10° S 19:48:57 82° W 19:54:12 10° N
Cosmos 1821 Rocket 3.9 19:45:02 10° S 19:51:09 83° E 19:57:23 10° N
GP-B 3.9 19:47:17 10° NNE 19:51:20 33° E 19:53:14 23° SE
COSMOS 2406 3.4 19:47:45 10° SSW 19:53:30 76° WNW 19:59:16 10° NNE
Shenzhou-11 Module 1.2 19:52:57 10° W 19:55:18 64° S 19:55:30 59° SSE
CZ-2C R/B 4.3 19:52:33 10° N 19:57:07 59° WNW 20:01:34 10° SSW
ERS-1 Rocket 4.0 19:56:09 21° ESE 19:58:29 30° ENE 20:02:49 10° N
SL-16 R/B 4.2 19:55:37 10° N 19:58:57 16° NE 20:02:18 10° E
Intercosmos 25 3.3 19:54:51 10° N 19:59:13 78° W 20:01:25 20° S
Cosmos 1862 Rocket 4.3 19:55:13 10° N 19:59:20 35° ENE 20:01:01 26° ESE
Lacrosse 5 3.8 19:57:41 10° NW 20:01:39 22° NNE 20:05:36 10° ENE
Cosmos 1862 4.4 19:58:46 10° SSW 20:02:39 45° WNW 20:06:35 10° N
Sich 1 3.2 19:59:05 10° SSW 20:03:30 76° W 20:07:57 10° N
Cosmos 2369 3.7 19:58:53 10° NNW 20:04:39 74° ENE 20:08:05 25° SE
Cosmos 2082 Rocket 2.2 20:03:00 10° S 20:08:35 61° ESE 20:14:11 10° NNE
BREEZE-M DEB (TANK) 4.0 20:06:20 10° WNW 20:08:40 22° N 20:09:54 14° NE
Cosmos 1818 3.6 20:03:49 10° NW 20:09:18 84° WSW 20:12:24 27° SSE
Cosmos 1954 Rocket 4.3 20:06:50 19° S 20:10:23 47° ESE 20:15:29 10° NNE
Cosmos 2278 3.9 20:08:15 10° NNW 20:13:55 59° ENE 20:16:44 29° SE
Cosmos 2123 Rocket 4.0 20:07:56 10° N 20:14:10 72° E 20:18:06 24° SSE
Cosmos 1535 Rocket 4.4 20:08:44 13° S 20:14:17 72° E 20:20:22 10° NNE
Spot 2 Rocket 3.5 20:11:25 26° SSE 20:14:20 75° ENE 20:19:27 10° N
Meteor 2-20 4.4 20:09:44 10° N 20:15:56 84° E 20:20:07 22° S
Cosmos 1184 Rocket 2.8 20:21:02 57° ESE 20:21:08 57° E 20:24:22 10° NNE
CARTOSAT-1 4.1 20:20:04 35° ESE 20:21:13 43° ENE 20:25:20 10° N
Cosmos 1190 Rocket 4.0 20:16:07 10° SSW 20:21:23 83° WNW 20:26:43 10° NNE
Cosmos 2322 Rocket 4.1 20:17:40 10° N 20:21:35 19° NE 20:24:25 13° E
Meteor 1-4 Rocket 2.3 20:18:14 10° N 20:21:43 83° E 20:22:26 54° SSE
Terra 2.9 20:21:08 26° E 20:22:24 30° ENE 20:26:33 10° N
USA 234 3.4 20:18:46 24° ESE 20:22:53 70° NE 20:29:24 10° NW
Cosmos 407 Rocket 3.9 20:19:04 10° SSW 20:24:21 65° WNW 20:29:38 10° NNE
Cosmos 1605 Rocket 4.0 20:21:08 25° SSE 20:24:37 58° E 20:30:34 10° NNE
Cosmos 1933 Rocket 4.1 20:24:16 36° ESE 20:24:42 37° E 20:28:46 10° NNE
Cosmos 1666 Rocket 3.8 20:21:27 14° SSW 20:25:06 67° W 20:29:26 10° N
Meteor 1-20 Rocket 4.4 20:23:25 27° SSE 20:26:26 58° E 20:32:10 10° NNE
Cosmos 1238 Rocket 3.4 20:28:02 29° NE 20:28:02 29° NE 20:29:53 10° NNE
SL-8 R/B 4.4 20:22:50 10° WNW 20:27:22 41° SW 20:28:49 32° S
MetOp-B 4.5 20:25:45 21° S 20:29:20 62° WSW 20:34:41 10° NNW
Cosmos 1602 4.5 20:31:37 36° E 20:31:37 36° E 20:34:55 10° NNE
Okean 1 4.2 20:27:37 10° N 20:31:18 33° ENE 20:31:27 33° E
Meteor 1-27 Rocket 4.3 20:26:43 10° NNW 20:32:32 58° W 20:36:53 18° SSW
Cosmos 2360 Rocket 4.4 20:32:38 10° NNE 20:35:31 14° NE 20:38:23 10° ENE
CZ-4B DEB 4.4 20:35:36 65° ENE 20:35:36 65° ENE 20:38:52 10° N
Cosmos 1437 Rocket 4.2 20:32:38 10° NNE 20:35:27 23° ENE 20:35:27 23° ENE
SPOT 5 2.8 20:35:54 46° ESE 20:36:42 53° ENE 20:40:56 10° N
USA 238 DEB 3.6 20:30:54 10° SSW 20:37:22 61° ESE 20:44:06 10° NE
USA 238 3.6 20:31:02 10° SSW 20:37:28 61° ESE 20:44:11 10° NE
BREEZE-M DEB (TANK) 4.1 20:36:49 10° W 20:38:33 13° WSW 20:39:00 13° SW
SPOT 1/Viking Rocket 3.6 20:39:53 34° S 20:42:13 76° WSW 20:47:28 10° NNW
Cosmos 1980 Rocket 2.1 20:39:23 10° NNW 20:45:06 90° WSW 20:47:05 43° SSE
Cosmos 1703 Rocket 4.2 20:42:56 10° N 20:47:02 39° ENE 20:47:05 39° ENE
Cosmos 2242 Rocket 3.7 20:42:44 10° N 20:47:06 55° E 20:47:29 53° E
SL-4 R/B 2.5 20:44:26 10° WSW 20:48:16 53° NNW 20:51:35 12° NE
Cosmos 405 Rocket 2.9 20:49:22 56° NE 20:49:22 56° NE 20:52:32 10° NNE
BREEZE-M DEB (TANK) 3.9 20:46:52 10° WNW 20:49:54 43° N 20:58:13 10° ENE
Cosmos 1763 Rocket 4.2 20:45:00 10° N 20:50:00 40° ENE 20:51:08 35° E
Cosmos 1140 Rocket 4.4 20:45:01 10° SW 20:50:04 50° WNW 20:55:12 10° N
Genesis I 3.0 20:46:46 10° NNW 20:50:39 81° NE 20:50:44 80° ENE
ATLAS 5 CENTAUR R/B 3.9 20:48:39 10° WNW 20:53:40 28° WSW 20:57:17 17° SSW
USA 32 4.2 20:53:02 29° SSW 20:55:44 68° W 21:00:59 10° N
Cosmos 1633 Rocket 4.5 20:55:05 14° SW 20:58:30 36° WNW 21:02:37 10° N
Cosmos 1459 Rocket 4.5 20:58:06 38° ESE 20:59:01 40° E 21:04:51 10° NNE
Cosmos 1833 Rocket 4.3 20:54:29 10° WSW 20:59:34 34° NW 21:04:41 10° N
Cosmos 1697 Rocket 3.8 20:55:31 10° NW 21:00:36 36° WSW 21:03:04 24° SSW
Cosmos 1153 Rocket 4.3 21:03:26 45° S 21:05:27 77° E 21:11:38 10° N
CENTAUR R/B 2.5 21:04:46 49° SSE 21:05:52 56° ESE 21:12:32 10° NE
Cosmos 1867 4.0 21:00:38 10° SW 21:06:00 62° NW 21:11:26 10° NNE
Resurs 01 Rocket 4.2 21:06:19 10° WSW 21:08:33 14° W 21:10:49 10° WNW
Meteor 1-18 Rocket 4.1 21:03:00 10° N 21:08:38 86° E 21:09:49 57° SSE
Okean 1-7 3.2 21:04:29 10° N 21:08:30 59° ENE 21:08:30 59° ENE
Cosmos 1802 Rocket 4.4 21:13:52 42° ESE 21:14:33 43° E 21:20:31 10° NNE
Cosmos 1850 Rocket 3.9 21:14:18 66° SE 21:14:38 68° ESE 21:19:54 10° NNE
Meteor 2-4 Rocket 3.8 21:12:43 10° N 21:18:19 57° ENE 21:18:53 55° ESE
Cosmos 1515 4.2 21:15:18 10° N 21:18:22 55° N 21:18:22 55° N
ATLAS 5 CENTAUR R/B 3.6 21:19:49 10° NNW 21:22:35 30° NE 21:23:25 28° ENE
NOSS 3-2 (A) 3.8 21:26:31 10° SW 21:32:09 60° NW 21:38:36 10° NNE
Cosmos 921 Rocket 4.0 21:31:12 10° NNW 21:34:50 38° W 21:34:50 38° W
ERS-1 Rocket 4.1 21:36:08 31° WSW 21:37:10 34° W 21:41:44 10° NNW
NOSS 3-2 (C) 3.3 21:35:51 43° SW 21:37:56 84° NW 21:44:26 10° NE
Cosmos 841 Rocket 3.7 21:36:54 10° NNW 21:42:00 58° ENE 21:42:00 58° ENE
Cosmos 540 Rocket 3.7 21:38:23 10° NNW 21:43:22 57° ENE 21:43:22 57° ENE
SL-16 R/B 2.0 21:38:18 10° NNW 21:44:00 81° ENE 21:44:17 78° ESE
Lacrosse 5 2.1 21:40:25 10° NW 21:45:28 63° NE 21:45:31 63° NE
Cosmos 468 Rocket 4.2 21:40:24 10° NNW 21:45:39 62° WSW 21:45:45 62° WSW
Cosmos 1741 Rocket 4.3 21:48:23 58° WSW 21:49:06 64° WNW 21:54:22 10° NNE
Cosmos 2082 Rocket 4.3 21:48:34 10° WSW 21:53:06 24° NW 21:57:39 10° N
Cosmos 1570 Rocket 4.0 21:48:02 10° NNW 21:53:10 74° NE 21:53:10 74° NE
Tsikada Rocket 4.3 21:48:19 10° N 21:54:31 51° ENE 21:54:55 50° E
Cosmos 2219 Rocket 4.1 21:50:43 10° N 21:54:49 20° NE 21:56:38 17° ENE
Cosmos 2208 Rocket 4.2 21:50:13 10° NNW 21:55:10 63° NE 21:55:10 63° NE
Cosmos 1814 Rocket 4.2 21:50:40 10° NNW 21:55:32 60° NE 21:55:32 60° NE
Terra 3.1 22:00:02 31° W 22:00:05 31° W 22:04:19 10° NNW
USA 234 4.0 22:06:06 37° SW 22:06:09 37° SW 22:12:08 10° WNW
Cosmos 2322 Rocket 2.1 22:00:38 10° NNW 22:06:13 82° W 22:06:13 82° W
Cosmos 2100 Rocket 4.3 22:05:35 49° WSW 22:06:50 58° WNW 22:12:54 10° N
Meteor 1-11 Rocket 3.7 22:09:09 78° NE 22:09:09 78° NE 22:14:34 10° NNE
Geosat 4.4 22:20:48 56° WNW 22:20:48 56° WNW 22:25:00 10° NNW
Cosmos 2360 Rocket 2.3 22:14:55 10° NNW 22:20:19 69° NE 22:20:19 69° NE
ATLAS 3B R/B 2.5 22:21:12 71° E 22:21:12 71° E 22:27:30 10° NE
Iridium 4 Rocket 4.5 22:21:44 33° WNW 22:21:44 33° WNW 22:24:59 10° NNW
COSMOS 2428 4.2 22:16:37 10° N 22:21:26 27° NE 22:22:37 25° ENE
ALOS 2 3.8 22:27:44 40° NNE 22:27:44 40° NNE 22:30:42 10° N
Cosmos 1725 Rocket 3.9 22:27:19 75° WSW 22:27:38 78° W 22:33:59 10° N
Cosmos 1980 Rocket 4.4 22:25:54 10° WNW 22:28:12 13° W 22:28:51 12° WSW
SL-4 R/B 4.3 22:25:22 10° WNW 22:27:13 20° NW 22:27:13 20° NW
SL-08 R/B 4.5 22:32:19 68° W 22:32:31 69° W 22:38:36 10° N
Nimbus 7 Rocket 4.4 22:26:54 10° NNE 22:32:15 69° ENE 22:32:15 69° ENE
Cosmos 2016 Rocket 4.5 22:39:51 49° WSW 22:40:39 51° WNW 22:46:52 10° N
Cosmos 2333 Rocket 3.0 22:35:35 10° NNW 22:41:06 44° ENE 22:41:19 43° ENE
Cosmos 2061 Rocket 4.5 22:41:23 48° W 22:42:04 50° WNW 22:48:05 10° N
Lacrosse 4 Rocket 3.6 22:45:24 21° NE 22:45:24 21° NE 22:46:55 10° NE
Cosmos 2237 Rocket 4.4 22:41:09 10° N 22:44:55 18° NE 22:47:32 13° ENE
Meteor 2-11 Rocket 4.5 22:51:23 70° ENE 22:51:23 70° ENE 22:56:59 10° NNE
CENTAUR R/B 4.0 22:51:50 13° W 22:56:54 35° NW 23:03:28 10° NNE
Thor Agena Rocket 4.5 22:52:25 10° N 22:57:00 41° WNW 22:57:00 41° WNW
Cosmos 968 Rocket 4.3 22:59:01 45° NE 22:59:01 45° NE 23:02:37 10° NNE
Cosmos 2233 Rocket 4.4 23:14:31 53° W 23:14:43 53° WNW 23:20:55 10° N
Cosmos 1464 Rocket 4.2 23:15:36 61° ENE 23:15:36 61° ENE 23:21:23 10° NNE
Cosmos 2227 Rocket 4.1 23:22:42 18° E 23:22:42 18° E 23:25:24 10° ENE
Meteor 1-21 4.5 23:20:04 10° N 23:25:21 66° NE 23:25:21 66° NE
SL-16 R/B 4.4 23:24:21 10° WNW 23:26:08 14° W 23:26:08 14° W
Lacrosse 5 4.3 23:23:58 10° WNW 23:24:41 13° WNW 23:24:41 13° WNW
Cosmos 2322 4.3 23:25:14 10° NNW 23:29:31 48° WNW 23:29:31 48° WNW
Nadezhda 4 Rocket 4.1 23:31:43 10° N 23:37:58 63° E 23:38:03 63° E
Cosmos 2219 Rocket 2.6 23:33:44 10° NNW 23:38:19 58° NW 23:38:19 58° NW
Cosmos 1513 Rocket 4.5 23:42:38 80° WNW 23:42:38 80° WNW 23:48:59 10° N
Cosmos 2034 Rocket 4.0 23:43:53 73° E 23:43:53 73° E 23:50:01 10° NNE
Cosmos 1975 Rocket 4.5 23:39:42 10° NNW 23:42:25 36° NNW 23:42:25 36° NNW
Cosmos 1072 Rocket 4.5 23:46:51 69° WNW 23:46:51 69° WNW 23:52:41 10° N
SL-16 R/B 4.0 23:46:16 22° E 23:48:54 30° ENE 23:54:14 10° N
Cosmos 1092 Rocket 4.4 23:46:06 10° N 23:52:10 50° ENE 23:52:44 49° E
CZ-2D R/B 3.8 23:50:33 10° NE 23:54:54 24° E 23:54:54 24° E
SL-16 R/B 4.3 23:50:48 10° N 23:55:15 23° NE 23:59:38 10° E
